Flag for Canada Weather past 2 weeks in Burnaby, British Columbia, Canada

Now
36 °F

Passing clouds.


Feels Like: 32 °F
Forecast: 36 / 47 °F
Wind: 5 mph from North

Location: Vancouver International Air-Port

Current Time: Jan 29, 2015 at 11:20:29 PM

Latest Report: Jan 29, 2015 at 11:00 PM


Visibility: 20 mi

Pressure: 30.34 "Hg

Humidity: 100%

Dew point: 36 °F

Location of BurnabyLocation

Historic Weather in Burnaby — Graph

°F

Burnaby temperature yesterday

Maximum temperature yesterday: 50 °F (at 2:00 PM)
Minimum temperature yesterday: 37 °F (at 11:00 PM)
Average temperature yesterday: 43 °F

Past Weeks' High & Low Weather Summary

 TemperatureHumidityPressure
High57 °F (Jan 25, 1:00 PM)100% (Jan 15, 12:00 AM)30.48 "Hg (Jan 15, 12:00 AM)
Low30 °F (Jan 21, 3:00 AM)62% (Jan 16, 3:00 PM)29.46 "Hg (Jan 18, 1:00 AM)
Average45 °F91%30.17 "Hg
* Reported Jan 14 10:00 PM — Jan 29 10:00 PM, Burnaby, Weather by CustomWeather, © 2014

Note: Actual official high and low records may vary slightly from our data, if they occured in-between our weather recording intervals... More about our weather records

Advertising

Burnaby weather history for previous 24 hours

 ConditionsComfort  
Time TempWeatherWind HumidityBarometerVisibility
10:00 PM
Jan 29
37 °FFog.No wind93%30.33 "Hg20 mi
9:00 PM41 °FPassing clouds.No wind93%30.33 "Hg20 mi
8:00 PM37 °FPassing clouds.5 mph93%30.34 "Hg30 mi
7:00 PM41 °FPassing clouds.3 mph93%30.33 "Hg30 mi
6:00 PM41 °FPassing clouds.5 mph100%30.33 "Hg30 mi
5:00 PM43 °FPassing clouds.7 mph93%30.33 "Hg30 mi
4:00 PM46 °FPassing clouds.8 mph87%30.34 "Hg30 mi
3:00 PM46 °FSunny.13 mph93%30.35 "Hg30 mi
2:00 PM46 °FPassing clouds.9 mph87%30.35 "Hg30 mi
1:00 PM46 °FPassing clouds.10 mph87%30.37 "Hg30 mi
12:00 PM46 °FPartly sunny.13 mph82%30.38 "Hg30 mi
11:00 AM45 °FOvercast.8 mph93%30.40 "Hg30 mi
10:00 AM43 °FOvercast.5 mph93%30.41 "Hg30 mi
9:00 AM37 °FPartly sunny.2 mph100%30.40 "Hg30 mi
8:00 AM36 °FPartly sunny.6 mph100%30.39 "Hg30 mi
7:00 AM37 °FPassing clouds.8 mph93%30.39 "Hg20 mi
6:00 AM37 °FPassing clouds.5 mph93%30.40 "Hg20 mi
5:00 AM36 °FPassing clouds.2 mph100%30.40 "Hg20 mi
4:00 AM39 °FPassing clouds.No wind93%30.41 "Hg20 mi
3:00 AM39 °FMostly cloudy.No wind93%30.42 "Hg20 mi
2:00 AM36 °FPassing clouds.2 mph93%30.41 "Hg20 mi
1:00 AM36 °FPassing clouds.No wind93%30.41 "Hg20 mi
12:00 AM37 °FPassing clouds.No wind100%30.41 "Hg20 mi
11:00 PM
Jan 28
37 °FPassing clouds.3 mph87%30.41 "Hg20 mi
Weather by CustomWeather, © 2014

See weather overviewHow to use our weather pages